OneWeb SL0594

operational
NORAD ID: 54660 Int'l Des: 2022-166 Owner: ONEWEBN Country: UK Constellation: oneweb
LEOCIRCULARPOLARONEWEB_TYPE

关于 OneWeb SL0594

正在加载描述...

实时位置

正在加载3D地球...

即将过境

高度历史

Altitude vs Time

uPlot chart will show altitude changes over time

两行轨道根数

1 54660U 22166U 25298.69618527 .00000332 00000-0 77287-3 0 9990
2 54660 87.9167 290.7827 0001901 90.0423 270.0928 13.21824717140587
Epoch: Oct 25, 2025 • Age: 11 hours

当前状态

高度 1188.2 km
速度 7.27 km/s
星下点 67.62°N, 8.23°E
发射日期 Dec 8, 2022
运行时间 2.8 years
类型 internet

技术详情

分类 Payload
质量 148.00 kg
干质量 140.00 kg
总质量 148.00 kg
长度 1.30 m
直径 1.00 m
跨度 5.00 m
形状 Trapezoid+2 pan
制造商 ONEWUS
平台类型 ARROW
阶段状态 In Orbit
所有者/国家 ONEWEBN/UK

大型星座

Loading constellations...